Regional Weather Roundup
Issued by NWS

Home | Current Version | Previous Version | Graphics & Text | Print | Product List | Glossary On
Versions: 1 2 3 4 5 6 7 8 9 10 11 12 13 14 15 16 17 18 19 20 21 22 23 24 25 26 27
000
ASUS45 KSLC 221210
RWRUT

UTAH REGIONAL WEATHER ROUNDUP
NATIONAL WEATHER SERVICE SALT LAKE CITY UT
600 AM MDT FRI SEP 22 2017

UTZ001>011-023>025-221300-

NORTHERN UTAH

CITY           SKY/WX    TMP DP  RH WIND       PRES   REMARKS
BRIGHAM CITY   CLOUDY    43  38  82 CALM      29.85R
HILL AFB       MOCLDY    41  37  87 SW7       29.84R
LOGAN          CLOUDY    42  39  89 W3        29.84S
OGDEN          CLOUDY    42  39  89 SW5       29.84R
SALT LAKE CITY CLOUDY    45  39  79 S3        29.84R
TOOELE VALLEY  CLOUDY    41  37  87 CALM      29.86S
WENDOVER       LGT RAIN  41  36  82 NW10      29.88R
HEBER CITY     CLOUDY    37  36  93 CALM      29.83S
WEST JORDAN    CLOUDY    41  41 100 CALM      29.85S

$$

UTZ011>015-024>027-221300-

CENTRAL/NORTHEAST UTAH

CITY           SKY/WX    TMP DP  RH WIND       PRES   REMARKS
PROVO AIRPORT  CLOUDY    42  40  92 S6        29.86R
MOAB/CANYONLAN MOCLDY    69  35  28 SW25      29.70S
DELTA          MOCLDY    37  36  93 CALM      29.87S
PRICE          CLOUDY    52  35  52 SE6       29.77R
RICHFIELD      CLOUDY    43  43 100 NE2       29.87S
ROOSEVELT      CLEAR     48  37  66 CALM      29.79R
VERNAL         PTCLDY    52  45  77 SW5       29.77R

$$

UTZ013>016-019>022-027-221300-

SOUTHERN UTAH

CITY           SKY/WX    TMP DP  RH WIND       PRES   REMARKS
BRYCE CANYON   PTCLDY    44  35  70 S10       29.88R
CEDAR CITY     CLOUDY    39  39 100 CALM      29.84F
MILFORD        CLEAR     37  36  96 S3        29.85S
ST GEORGE      CLOUDY    55  38  52 S5        29.79R
HANKSVILLE     PTCLDY    63  30  29 SW10      29.76R
KANAB          PTCLDY    50  36  57 S5        29.86R
BLANDING         N/A     56  32  40 S8        29.94S

$$

REGIONAL REPORTS     COLORADO/ARIZONA

CITY           SKY/WX    TMP DP  RH WIND       PRES   REMARKS
CRAIG, CO      CLEAR     62  24  23 S14G26    29.82R
GRAND JUNCTION PTCLDY    67  34  29 S12       29.77S
RIFLE, CO      MOCLDY    68  34  28 S18G28    29.81S
MONTROSE, CO   MOCLDY    65  38  36 SW21G36   29.85S
CORTEZ, CO     CLOUDY    64  37  36 S9        29.91R
PAGE, AZ       CLEAR     65  37  35 S6        29.75R
GRAND CANYON   CLOUDY    51  38  60 SW13      29.90S
KINGMAN, AZ    CLEAR     50  38  63 S7        29.79S
FLAGSTAFF, AZ  CLEAR     45  35  68 SW6       29.93S

$$

REGIONAL REPORTS    NEVADA/IDAHO/WYOMING

CITY           SKY/WX    TMP DP  RH WIND       PRES   REMARKS
LAS VEGAS, NV  CLEAR     59  26  28 VRB3      29.78R
ELY, NY        CLOUDY    32  31  96 E3        29.88R
ELKO, NV       CLOUDY    39  36  89 SW5       29.87R
POCATELLO, ID  NOT AVBL
BURLEY, ID     LGT RAIN  42  36  79 W12       29.85R
FORT BRIDGER,  CLOUDY    39  38  97 SW13G18   29.85F WCI  32
EVANSTON, WY   FOG       33  33 100 SW9       29.82S VSB 3/4 WCI  25
ROCK SPRINGS,  RAIN      39  36  89 NW8       29.88R FOG     WCI  33
KEMMERER, WY     N/A     36  34  93 SW3       29.83R

$$




USA.gov is the U.S. government's official web portal to all federal, state and local government web resources and services.